Regional Weather Roundup
Issued by NWS Burlington, VT

Current Version | Previous Version | Text Only | Print | Product List | Glossary On
Versions: 1 2 3 4 5 6 7 8 9 10 11 12 13 14 15 16 17 18 19 20 21 22 23 24 25 26 27 28 29 30 31 32 33 34 35 36 37 38 39 40 41 42 43 44 45 46 47 48 49 50
000
ASUS41 KBTV 220030
RWRBTV
VERMONT REGIONAL WEATHER ROUNDUP
NATIONAL WEATHER SERVICE BURLINGTON VT
800 PM EDT THU AUG 21 2014

NOTE: "FAIR" INDICATES FEW OR NO CLOUDS BELOW 12,000 FEET WITH NO
SIGNIFICANT WEATHER AND/OR OBSTRUCTIONS TO VISIBILITY.

* THESE REPORTS ARE NOT UNDER NWS QUALITY CONTROL AND/OR DO NOT
  REPORT WEATHER SUCH AS PRECIPITATION AND FOG.

VTZ001>019-220100-
_____VERMONT_____


CITY           SKY/WX    TMP DP  RH WIND       PRES   REMARKS
BURLINGTON     CLOUDY    66  55  67 SE6       30.05R
6HR MIN TEMP:  66; 6HR MAX TEMP:  73;

MONTPELIER     CLOUDY    59  57  93 CALM      30.13S
6HR MIN TEMP:  56; 6HR MAX TEMP:  60; 6HR PCP:  0.42;

MORRISVILLE    CLOUDY    62  58  86 CALM      30.10S
6HR MIN TEMP:  61; 6HR MAX TEMP:  64; 6HR PCP:  0.06;

ST. JOHNSBURY*   N/A     60  57  89 MISG      30.08F
6HR MIN TEMP:  60; 6HR MAX TEMP:  69; 6HR PCP:  0.01;

MIDDLEBURY*    HVY RAIN  62  61  97 SE9       30.05S
6HR MIN TEMP:  62; 6HR MAX TEMP:  69; 6HR PCP:  0.12;

RUTLAND*       CLOUDY    63  55  77 SE15      30.07S
6HR MIN TEMP:  61; 6HR MAX TEMP:  66;

SPRINGFIELD    CLOUDY    61  60  97 N3        30.10R
6HR MIN TEMP:  61; 6HR MAX TEMP:  67; 6HR PCP:  0.02;

HIGHGATE*      MOCLDY    65  54  68 SE5       30.04S
6HR MIN TEMP:  65; 6HR MAX TEMP:  72;

NEWPORT*       FAIR      59  56  90 CALM      30.10S
6HR MIN TEMP:  60; 6HR MAX TEMP:  71;

BENNINGTON     CLOUDY    67  61  81 N6        30.04R
6HR MIN TEMP:  67; 6HR MAX TEMP:  73; 6HR PCP: TRACE;

GALLUP MILLS*    N/A      0 N/A N/A MISG        N/A
UNION VILLAGE*   N/A     63 N/A N/A MISG        N/A
MT. MANSFIELD*   N/A     50 N/A N/A SE17        N/A

_____LAKE CHAMPLAIN_____


CITY           SKY/WX    TMP DP  RH WIND       PRES   REMARKS
BURTON ISLAND*   N/A     68  57  68 E6          N/A
COLCHESTER RF*   N/A     66  64  94 SW14        N/A
DIAMOND ISL*     N/A     64  59  82 E6          N/A

$$

NYZ007-026>031-035-052-083-220100-
_____NORTHERN NEW YORK_____


CITY           SKY/WX    TMP DP  RH WIND       PRES   REMARKS
PLATTSBURGH    CLOUDY    67  59  75 SE8       30.03S
6HR MIN TEMP:  67; 6HR MAX TEMP:  72;

SARANAC LAKE   CLOUDY    64  62  93 NE6       30.03S
6HR MIN TEMP:  65; 6HR MAX TEMP:  74; 6HR PCP: TRACE;

MASSENA        CLOUDY    65  64  97 NE5       29.99S
6HR MIN TEMP:  65; 6HR MAX TEMP:  77; 6HR PCP:  0.71;

OGDENSBURG*    CLEAR     66  64  94 CALM      29.97S
PARISHVILLE*     N/A     72 N/A N/A SE12        N/A
WATERTOWN      CLOUDY    73  66  78 CALM      29.96R
6HR MIN TEMP:  73; 6HR MAX TEMP:  80;

FT DRUM        CLOUDY    71  65  82 SE5       29.97S
6HR MIN TEMP:  69; 6HR MAX TEMP:  79; 6HR PCP: TRACE;

ALBANY         CLOUDY    74  64  71 SE9       30.00R
6HR MIN TEMP:  73; 6HR MAX TEMP:  77; 6HR PCP:  0.01;

GLENS FALLS    CLOUDY    68  63  84 NE6       30.02R
6HR MIN TEMP:  68; 6HR MAX TEMP:  71; 6HR PCP: TRACE;


$$
NHZ002-005-011-220100-
_____NEW HAMPSHIRE_____


CITY           SKY/WX    TMP DP  RH WIND       PRES   REMARKS
LEBANON        CLOUDY    62  59  90 CALM      30.09R FOG
6HR MIN TEMP:  62; 6HR MAX TEMP:  69; 6HR PCP:  0.18;

KEENE          CLOUDY    63  48  59 N3        30.09S
6HR MIN TEMP:  63; 6HR MAX TEMP:  64;

MT WASHINGTON  PTCLDY    46  36  66 SE20        N/A
6HR MIN TEMP:  45; 6HR MAX TEMP:  49; 6HR PCP:  0.01;

PLYMOUTH       CLOUDY    64  61  89 S6        30.10R
6HR MIN TEMP:  65; 6HR MAX TEMP:  70;

WHITEFIELD     CLOUDY    64  58  80 CALM      30.11R
6HR MIN TEMP:  63; 6HR MAX TEMP:  72; 6HR PCP: TRACE;


$$

_____REGIONAL QUEBEC LOCATIONS_____


CITY           SKY/WX    TMP DP  RH WIND       PRES   REMARKS
MONTREAL       MOCLDY    70  57  64 SE9       30.03S
QUEBEC CITY    MOCLDY    68  57  68 E10       30.11R
SHERBROOKE     CLOUDY    66  61  82 SW5       30.08R

_____REGIONAL ONTARIO LOCATIONS_____


CITY           SKY/WX    TMP DP  RH WIND       PRES   REMARKS
OTTAWA         MOCLDY    66  64  94 E10       29.99R

______KEY______
VSB  - VISIBILITY IN MILES
WCI  - WIND CHILL INDEX
HX   - HEAT INDEX
$$
NNNN



USA.gov is the U.S. government's official web portal to all federal, state and local government web resources and services.